Location: Burla
(50.9568°N, 10.4983°E)
Time: 09:42:41
(UTC+00:00)

Cosmos 1610 Rocket - Pass Details

Date: 18 January 2026
Orbit: 953 x 1000 km, 82.9° (Epoch: 18 February)

Event Time Altitude Azimuth Distance (km) Brightness Sun altitude
Rises 05:23:00 0° 196° (SSW) 3,616 7.5 -16.6°
Reaches altitude 10° 05:25:29 10° 198° (SSW) 2,675 6.7 -16.2°
Maximum altitude 05:31:35 70° 282° (WNW) 1,018 4.4 -15.3°
Drops below altitude 10° 05:37:45 10° 6° (N) 2,707 6.7 -14.4°
Sets 05:40:18 0° 9° (N) 3,663 7.4 -14.0°
